Location: Portland General Electric Promontory Park Marina
(45.2238°N, 122.2465°W)
Time: 05:42:01
(UTC+00:00)

Daily predictions for brighter satellites

Satellite Brightness Start Highest point End
(mag) Time Altitude Azimuth Time Altitude Azimuth Time Altitude Azimuth
Cosmos 2369 Rocket 2.9 04:18:55 10° SSE 04:23:56 33° ESE 04:28:58 10° NE
SL-08 R/B 3.9 04:23:31 10° N 04:28:04 62° WNW 04:32:40 10° SSW
Cosmos 2208 Rocket 4.1 04:23:19 10° NNW 04:28:34 66° ENE 04:33:51 10° SSE
Resurs 01 Rocket 4.0 04:25:15 10° SW 04:28:44 23° W 04:32:14 10° NW
ISS -1.7 04:26:49 10° WNW 04:29:44 27° N 04:32:40 10° NE
TRACE 2.9 04:28:14 10° N 04:30:02 75° WNW 04:31:48 10° SSW
Helios 1B rocket 2.3 04:26:32 10° SSE 04:30:07 56° ENE 04:33:45 10° N
Lacrosse 5 rocket 4.0 04:29:53 10° WNW 04:32:45 19° NNW 04:35:39 10° NNE
Cosmos 1503 Rocket 4.5 04:29:26 10° S 04:34:11 38° ESE 04:38:56 10° NE
Okean-O 2.8 04:33:18 10° SSE 04:37:36 59° ENE 04:41:55 10° N
Tiangong 0.1 04:38:52 10° SSE 04:39:38 11° SSE 04:40:16 10° SE
Cosmos 1378 Rocket 3.8 04:40:27 10° SSE 04:44:32 46° E 04:48:39 10° NNE
Okean O Rocket 1.6 04:40:53 10° SSE 04:45:14 88° WSW 04:49:40 10° NNW
Cosmos 1634 Rocket 4.0 04:40:58 10° N 04:47:12 86° E 04:53:21 10° S
Cosmos 773 Rocket 4.0 04:42:49 10° NNW 04:48:07 80° ENE 04:53:24 10° SSE
Cosmos 1025 Rocket 4.2 04:47:34 11° SE 04:51:01 26° E 04:54:37 10° NNE
ASTEX 1 4.2 04:50:20 10° NNE 04:54:43 33° E 04:58:39 12° SSE
NOSS 5 (C) 4.2 04:51:39 10° NW 04:54:57 86° SW 04:57:39 14° SE
Ariane Rocket 3.9 04:52:02 12° SE 04:56:17 35° ENE 05:00:51 10° N
BREEZE-M R/B 2.9 04:57:13 10° W 04:58:46 29° SSW 04:59:47 17° SSE
Meteor PRIRODA 3.6 04:57:49 10° S 05:00:34 51° W 05:03:21 10° NNW
BREEZE-M DEB (TANK) 4.4 04:41:58 10° WSW 05:00:37 83° SSE 05:05:13 10° ENE
CZ-4B R/B 4.3 04:57:26 10° S 05:02:32 53° W 05:07:35 10° NNW
Cosmos 1777 Rocket 3.9 04:59:40 10° SSW 05:04:52 77° ESE 05:10:05 10° NNE
Cosmos 2279 Rocket 4.0 04:58:41 10° N 05:04:57 81° E 05:11:13 10° S
IRS-1A Rocket 4.3 05:00:54 10° SSE 05:06:23 82° WSW 05:11:59 10° NNW
BlueWalker 3 4.1 05:15:31 10° NW 05:18:30 23° N 05:21:29 10° NE
Meteor 2-12 Rocket 4.5 05:14:07 10° S 05:20:11 65° E 05:26:15 10° NNE
PSLV R/B 4.3 05:20:48 21° ESE 05:22:10 30° ENE 05:24:58 10° N
SPOT 3 Rocket 3.6 05:18:24 16° SSE 05:22:27 66° ENE 05:27:38 10° N
Cosmos 1833 4.5 05:17:24 10° NNW 05:23:01 58° ENE 05:27:02 19° SE
BREEZE M DEB (TANK) 3.5 05:18:17 10° SW 05:24:11 36° SSE 05:26:38 12° E
Cosmos 44 3.3 05:21:48 10° S 05:25:52 43° ESE 05:30:02 10° NE
Meteor 1-21 Rocket 4.3 05:20:36 10° SSW 05:26:17 83° W 05:31:54 10° N
Cosmos 1812 3.2 05:23:45 10° N 05:26:38 31° ENE 05:27:43 24° ESE
Okean 2 Rocket 3.0 05:22:52 10° N 05:27:16 84° E 05:30:27 18° S
IRS-1C Rocket 4.1 05:23:37 16° SSE 05:27:52 85° ENE 05:33:10 10° NNW
TSX-5 3.9 05:25:38 10° NW 05:28:41 49° WSW 05:30:40 21° S
Spot 2 Rocket 3.8 05:26:28 13° S 05:31:03 66° WSW 05:36:08 10° NNW
Cosmos 2297 4.0 05:25:31 10° SSW 05:31:08 73° WNW 05:36:50 10° NNE
Meteor 1-11 4.3 05:26:01 11° S 05:31:37 66° E 05:37:22 10° NNE
Cosmos 1818 3.6 05:28:21 10° NW 05:33:49 82° NE 05:37:24 22° SE
Cosmos 2151 Rocket 3.9 05:29:23 10° NNW 05:33:52 67° W 05:37:30 15° S
Terra 3.1 05:31:47 10° SSW 05:36:07 37° W 05:40:30 10° NNW
Meteor 2-1 Rocket 4.4 05:30:53 10° N 05:36:41 60° ENE 05:40:22 22° SSE
Okean 1 Rocket 3.0 05:38:47 10° N 05:43:10 85° W 05:45:51 23° S
Cosmos 2221 Rocket 3.7 05:39:27 12° SSW 05:43:39 79° W 05:48:13 10° N
Cosmos 1975 Rocket 4.0 05:43:31 25° ESE 05:44:51 30° E 05:48:36 10° NNE
SAR-Lupe-2 3.8 05:46:18 25° S 05:48:14 64° WSW 05:51:49 10° NNW
Cosmos 1455 Rocket 3.1 05:51:08 10° N 05:55:25 60° E 05:57:12 32° SE
Sich 1 Rocket 4.2 05:53:56 10° NNW 05:58:23 53° W 06:01:24 19° SSW
Cosmos 2228 4.2 05:54:56 10° NNE 05:58:34 27° ENE 05:59:49 23° ESE
Cosmos 990 Rocket 4.1 05:54:08 10° SSW 05:59:17 77° WNW 06:04:31 10° NNE
CZ-4C R/B 1.6 05:55:53 10° SSW 06:00:04 83° SE 06:05:24 10° NE
Aureole 1 Rocket 4.2 05:59:03 20° S 06:03:36 61° ESE 06:10:51 10° NNE
Cosmos 1900 4.3 06:00:53 15° SSW 06:05:02 66° ESE 06:10:06 10° NE
ISS -2.1 06:03:59 10° NW 06:07:04 32° NNE 06:09:22 15° ENE
Cosmos 2369 Rocket 3.5 06:02:27 10° SW 06:07:49 41° WNW 06:13:12 10° NNE
NOSS 3-4 (A) 4.4 06:01:55 10° NW 06:08:41 52° WSW 06:13:42 23° S
NOSS 3-4 (C) 4.4 06:01:58 10° NW 06:08:44 53° WSW 06:13:42 23° S
Lacrosse 5 rocket 4.1 06:09:04 10° NNW 06:11:21 15° N 06:13:40 10° NE
Nadezhda 4 Rocket 4.5 06:10:32 10° SSW 06:16:41 61° WNW 06:22:58 10° N
ARIANE 5 R/B 4.0 06:16:40 22° E 06:18:09 27° ENE 06:21:52 10° N
Cosmos 372 Rocket 3.9 06:16:51 30° S 06:19:21 68° ESE 06:24:24 10° NNE
Cosmos 2297 Rocket 3.7 06:15:22 10° N 06:20:07 27° NE 06:23:35 15° E
Cosmos 2285 Rocket 4.1 06:16:51 11° SSW 06:23:05 80° WNW 06:29:33 10° NNE
DELTA 2 R/B (1) 3.8 06:25:40 10° WSW 06:30:55 45° S 06:32:24 36° SE
BREEZE-M DEB (TANK) 2.8 06:30:53 10° WSW 06:33:43 76° NNW 06:41:49 10° ENE
Cosmos 1697 Rocket 4.5 06:35:12 15° E 06:35:12 15° E 06:38:20 10° ENE
Ariane Rocket 4.4 06:32:08 17° SSW 06:35:10 31° W 06:39:39 10° NNW
Cosmos 2026 Rocket 4.0 06:31:49 24° SSW 06:35:35 77° W 06:41:41 10° N
Cosmos 1937 Rocket 3.4 06:34:00 40° SSE 06:35:39 62° ESE 06:40:43 10° NNE
Cosmos 1680 Rocket 4.1 06:33:31 10° N 06:38:36 46° ENE 06:40:34 32° ESE
Iridium 82 4.4 06:37:29 10° N 06:40:50 68° W 06:40:57 67° WSW
Cosmos 1544 Rocket 3.6 06:41:28 10° N 06:45:48 63° E 06:46:36 52° SE
Cosmos 923 Rocket 3.9 06:44:33 10° NNW 06:49:46 77° ENE 06:51:19 46° SE
DELTA 2 DEB (DPAF) 3.8 06:47:36 10° N 06:51:31 75° WNW 06:52:16 55° SW
Cosmos 1553 Rocket 4.0 06:45:27 10° N 06:51:44 76° E 06:54:15 39° SSE
Gbstr 26 Del rocket 4.1 06:46:41 10° WNW 06:51:58 62° NNE 06:57:29 14° E
Cosmos 2227 Rocket 4.0 06:48:12 10° N 06:52:43 23° NE 06:56:29 13° E
BlueWalker 3 3.0 06:53:25 10° NW 06:56:54 39° NNE 06:58:14 28° ENE
Cosmos 1092 Rocket 4.4 06:53:40 23° SSW 06:57:41 59° WNW 07:03:56 10° N
RESURS DK-1 2.7 06:54:48 10° NNW 06:58:42 51° ENE 06:59:11 48° E
USA 215 4.0 06:53:10 10° E 06:59:24 49° NNE 07:05:38 10° NW
GEOS 3 Rocket 4.3 06:56:51 10° NE 07:01:36 35° ESE 07:01:36 35° ESE
Cosmos 1867 3.9 06:58:09 14° SW 07:02:47 66° NW 07:08:14 10° NNE
Cosmos 2098 Rocket 3.0 07:00:43 10° NNW 07:03:53 48° W 07:03:54 48° W
CZ-4C R/B 3.0 07:00:22 10° NNE 07:04:02 90° WNW 07:04:04 88° SSW
SL-08 ROCKET BODY 4.3 07:03:37 43° SSE 07:05:32 70° E 07:11:25 10° NNE
Cosmos 2058 3.4 07:06:25 42° E 07:06:25 42° E 07:09:53 10° NNE
ALOS 2 3.1 07:08:03 42° E 07:08:45 46° ENE 07:12:58 10° N
S3M 4.3 07:06:05 10° N 07:12:16 54° ENE 07:14:24 38° SE
Cosmos 494 Rocket 4.4 07:08:55 10° NNW 07:14:03 55° ENE 07:15:28 41° ESE
MetOp-A 3.1 07:15:44 87° W 07:15:44 87° W 07:19:30 10° NNW
Cosmos 1400 Rocket 2.6 07:12:18 10° NNW 07:16:01 81° WNW 07:16:01 81° WNW
Cosmos 1898 Rocket 4.5 07:15:04 19° SW 07:18:31 43° WNW 07:23:31 10° N
Cosmos 1782 2.9 07:22:52 10° N 07:26:10 59° NE 07:26:10 59° NE
Meteor 2-20 Rocket 4.4 07:20:47 10° NNW 07:26:47 74° W 07:28:33 46° SSW
Spot 4 3.7 07:30:30 63° S 07:31:15 81° WSW 07:36:06 10° NNW
Cosmos 1862 4.1 07:34:14 39° ENE 07:34:14 39° ENE 07:37:03 10° NNE
Cosmos 2228 4.4 07:31:59 10° NNW 07:35:32 27° W 07:36:09 25° WSW
Cosmos 1656 3.9 07:34:59 33° SW 07:37:27 64° WNW 07:42:58 10° NNE
Cosmos 1356 Rocket 4.4 07:36:11 10° N 07:39:53 34° ENE 07:40:04 33° E
Cosmos 2263 Rocket 3.8 07:36:42 10° N 07:41:31 28° NE 07:45:10 15° E
ISS -1.9 07:40:38 10° WNW 07:42:11 25° WNW 07:42:11 25° WNW
CZ-4C R/B 4.4 07:45:26 10° WNW 07:49:12 22° NNW 07:53:43 10° NNE
Lacrosse 5 rocket 3.2 07:46:24 10° NW 07:49:49 27° NNE 07:52:34 14° E
ARIANE 5 R/B 3.7 07:54:04 33° WSW 07:54:20 33° W 07:58:23 10° NNW
Cosmos 2297 Rocket 2.3 07:58:58 10° NNW 08:04:30 56° WSW 08:05:21 51° SW
Cosmos-2242 4.0 08:01:56 10° N 08:05:50 35° ENE 08:06:13 34° E
Landsat 5 4.3 08:02:56 10° N 08:06:25 35° WNW 08:06:36 35° WNW
Cosmos 1441 Rocket 3.9 08:08:31 43° NE 08:08:31 43° NE 08:11:04 10° NNE
Cosmos 1980 Rocket 2.6 08:12:51 42° SE 08:13:27 43° ESE 08:18:44 10° NE
Cosmos 1697 Rocket 2.6 08:16:53 52° SW 08:18:20 82° WNW 08:24:02 10° NNE
BREEZE M DEB (TANK) 4.4 07:57:32 10° SW 08:19:54 68° SSE 08:25:07 10° ENE
Cosmos 1315 Rocket 2.9 08:21:18 10° N 08:24:45 70° N 08:24:45 70° N
Cosmos 1606 Rocket 4.5 08:22:00 10° NNW 08:26:00 36° W 08:26:00 36° W
CZ-2C R/B 3.6 08:23:44 28° ESE 08:26:06 42° ENE 08:31:21 10° N
Meteor 2-3 Rocket 3.7 08:26:26 55° SSW 08:27:49 87° W 08:33:37 10° N
Cosmos 468 4.4 08:26:39 10° NNW 08:32:00 89° WSW 08:32:59 61° SSE
Cosmos 1933 4.0 08:28:51 10° NNW 08:32:05 44° WNW 08:32:05 44° WNW
ATLAS 2AS CENTAUR R/B 3.1 08:26:22 10° NNW 08:33:04 59° NE 08:38:28 16° ESE
BlueWalker 3 4.1 08:31:09 10° WNW 08:32:06 17° WNW 08:32:06 17° WNW
Cosmos 2315 Rocket 4.5 08:29:52 10° NNW 08:35:59 49° W 08:37:45 39° SW
Cosmos 2227 Rocket 2.2 08:31:37 10° NNW 08:37:16 67° WSW 08:38:15 56° SSW
Gbstr 26 Del rocket 4.1 08:33:02 10° WNW 08:38:41 52° SW 08:39:28 49° SSW
H-2A R/B 3.7 08:38:00 27° E 08:38:43 30° ENE 08:42:08 10° N
GEOS 3 Rocket 4.4 08:34:40 10° NNE 08:39:44 49° NW 08:42:36 25° WSW
USA 215 3.2 08:39:39 39° SSE 08:42:15 68° SW 08:48:47 10° NW
IDEFIX/ARIANE 42P 4.4 08:39:45 10° NE 08:43:18 19° E 08:44:56 16° ESE
ALOS 2 4.5 08:45:27 18° W 08:45:27 18° W 08:48:22 10° NW
Cosmos 2058 Rocket 3.3 08:45:18 10° NNW 08:49:40 57° W 08:49:45 56° W
Cosmos 1125 Rocket 3.6 08:51:18 52° SW 08:52:29 70° WNW 08:57:44 10° NNE
Geosat 4.1 08:50:38 10° NNE 08:55:38 71° WNW 08:56:52 50° SW
Cosmos 2150 Rocket 4.3 08:58:23 48° SSE 08:59:30 59° ESE 09:04:51 10° NNE
Meteor 2-2 Rocket 4.3 08:55:15 10° NNW 09:00:49 65° W 09:02:04 51° SSW
USA 290 3.1 09:00:18 10° NNW 09:02:48 48° N 09:02:48 48° N
Cosmos 614 Rocket 3.8 09:01:33 10° NNW 09:06:37 74° WSW 09:07:27 60° S
Meteor 1-26 Rocket 4.2 09:01:58 10° NNW 09:07:17 63° W 09:08:23 51° SSW
ATLAS 5 CENTAUR R/B 3.8 09:06:19 10° NNW 09:10:00 26° NE 09:14:20 10° E
Meteor 2-6 Rocket 4.3 09:06:43 10° N 09:12:34 78° E 09:14:51 39° SSE
Cosmos 1602 Rocket 3.5 09:12:36 64° SE 09:13:03 71° E 09:17:24 10° NNE
Cosmos 2322 Rocket 4.1 09:12:01 14° SE 09:14:14 18° E 09:17:52 10° ENE
Cosmos 1758 Rocket 3.4 09:14:43 67° SW 09:15:10 75° W 09:19:38 10° N
Cosmos 192 4.3 09:14:49 55° SW 09:15:48 73° WNW 09:20:44 10° NNE
Cosmos 1626 Rocket 3.7 09:16:22 54° WSW 09:16:47 56° WNW 09:21:08 10° N
Nadezhda 1 Rocket 3.9 09:15:06 10° N 09:21:21 88° WSW 09:23:42 40° S
USA 32 3.9 09:22:28 52° SSW 09:23:47 81° W 09:29:02 10° N
Cosmos 2263 Rocket 2.3 09:20:14 10° NW 09:25:43 53° WSW 09:26:47 46° SSW
Landsat 4 4.2 09:27:44 40° N 09:27:44 40° N 09:29:43 10° N
Lacrosse 5 rocket 1.8 09:23:33 10° NW 09:26:24 43° WNW 09:26:24 43° WNW
CZ-2C R/B 2.9 09:23:08 10° N 09:27:50 65° WNW 09:28:54 50° SW
Cosmos 1745 Rocket 4.0 09:27:30 41° S 09:29:58 86° W 09:36:22 10° N
Spot 2 4.0 09:29:26 54° SE 09:30:12 72° ENE 09:34:11 10° N
Cosmos 2298 Rocket 4.0 09:30:00 48° SSW 09:31:31 80° WNW 09:36:51 10° NNE
Cosmos 2369 3.7 09:31:02 43° SW 09:32:56 75° WNW 09:38:37 10° NNE
Cosmos 2082 3.6 09:27:36 10° NNW 09:33:16 74° WSW 09:35:20 40° S
Cosmos 921 Rocket 2.9 09:28:52 10° NNW 09:33:17 84° WSW 09:34:00 61° S
CENTAUR R/B 3.2 09:32:59 28° SSE 09:34:47 34° ESE 09:40:36 10° NE
Cosmos 2151 2.8 09:36:04 65° S 09:36:38 85° E 09:40:48 10° N
Cosmos 44 Rocket 3.9 09:38:04 35° SE 09:38:56 39° ESE 09:43:19 10° NE
MSX 4.1 09:37:21 10° NNE 09:43:02 59° E 09:45:36 32° SSE
Cosmos 1709 Rocket 4.0 09:40:28 36° S 09:43:16 87° E 09:49:36 10° N
BREEZE M DEB (TANK) 3.2 09:43:15 23° NW 09:44:31 47° NNE 09:48:36 10° E
SL-16 R/B 2.6 09:42:49 34° SSE 09:44:57 53° ESE 09:50:28 10° NE
Cosmos 2333 Rocket 3.3 09:45:39 24° SSE 09:48:11 35° ESE 09:53:17 10° NE
Cosmos 2219 3.6 09:43:32 10° NW 09:48:51 42° WSW 09:49:59 38° SW
Cosmos 1076 Rocket 4.2 09:49:11 33° SE 09:50:35 47° E 09:54:40 10° NNE
Meteor 1-10 Rocket 4.2 09:48:34 10° N 09:54:22 89° E 09:57:32 29° S
Cosmos 1733 4.2 09:54:38 25° ESE 09:55:00 26° E 09:57:34 10° NNE
Cosmos 1238 Rocket 3.3 09:50:09 10° NNW 09:55:17 69° W 09:56:45 43° SSW
Cosmos 1980 Rocket 3.4 09:54:34 20° WSW 09:57:33 32° NW 10:02:35 10° N
Okean 1 4.3 09:55:25 10° NNW 09:58:26 29° W 09:58:26 29° W
Cosmos 1140 Rocket 4.0 09:56:50 10° NNW 10:01:56 57° ENE 10:07:01 10° SE
NPP 3.7 09:57:03 10° NNE 10:02:29 76° ESE 10:05:00 33° S
Cosmos 1346 Rocket 2.5 10:02:35 61° SSW 10:03:11 89° W 10:06:54 10° N
H-2A R/B 2.7 10:02:00 10° NNE 10:06:08 48° E 10:07:57 29° SSE
Cosmos 2221 3.0 10:02:15 10° NNW 10:06:13 39° W 10:06:45 37° WSW
Meteor 1-20 Rocket 4.2 10:03:33 34° SSW 10:06:16 86° W 10:12:03 10° N
CZ-2C R/B 3.7 10:05:12 28° WSW 10:06:25 30° W 10:11:18 10° NNW
Resurs 1-4 Rocket 2.9 10:05:11 10° NNE 10:10:17 46° E 10:13:36 21° SSE
Cosmos 1953 Rocket 3.5 10:09:29 40° S 10:11:01 84° E 10:15:21 10° N
H-2A R/B 3.8 10:13:21 22° W 10:13:21 22° W 10:16:08 10° NW
Milstar 3 Cent rocket 4.4 10:15:47 13° SSE 10:15:47 13° SSE 10:17:18 10° SE
USA 276 1.7 10:19:57 75° ENE 10:19:57 75° ENE 10:22:24 10° ENE
Cosmos 1844 Rocket 2.6 10:15:56 10° NNW 10:21:35 90° W 10:27:11 10° SSE
IDEFIX/ARIANE 42P 2.7 10:18:04 10° N 10:23:11 60° WNW 10:25:38 30° SW
ATLAS 2AS CENTAUR R/B 3.3 10:17:46 10° NW 10:23:36 32° WSW 10:25:47 27° SSW
CZ-2D R/B 2.5 10:19:50 10° NNE 10:24:58 56° E 10:28:24 20° S
SeaSat 1 2.7 10:20:27 10° SE 10:25:19 70° ENE 10:30:13 10° NNW
Cosmos 1844 3.7 10:21:20 10° NNW 10:27:04 90° NE 10:32:49 10° SSE
Cosmos 2227 4.2 10:21:27 10° NNW 10:27:05 65° WSW 10:31:35 16° S
Cosmos 1825 Rocket 4.4 10:27:57 29° WSW 10:29:20 37° WNW 10:33:25 10° N
Cosmos 2360 Rocket 2.4 10:31:48 24° S 10:35:12 67° ESE 10:40:48 10° NNE
OAO 3 Rocket 4.3 10:40:20 24° S 10:40:31 24° S 10:44:17 10° SE
Cosmos 2278 3.9 10:37:28 25° SW 10:40:44 61° WNW 10:46:20 10° NNE
Cosmos 1269 Rocket 4.2 10:36:28 10° NNW 10:41:35 50° WSW 10:44:57 20° S
Cosmos 2184 Rocket 4.1 10:38:07 18° S 10:43:05 82° E 10:49:30 10° N
MOZ.5/SAFIR/RUBIN 5/SL-8 4.3 10:42:40 27° SSW 10:44:41 41° W 10:49:07 10° NNW
ALOS 2.7 10:40:11 10° NNE 10:44:43 57° E 10:48:10 17° S
H-2A R/B 3.9 10:45:01 10° NE 10:48:53 23° E 10:52:45 10° SE
BREEZE-M DEB 3.8 10:38:56 10° WNW 10:49:22 73° NNE 10:52:35 10° E
Cosmos 1743 3.7 10:48:42 22° W 10:49:27 24° WNW 10:52:15 10° NNW
Cosmos 1707 2.2 10:46:15 10° NNW 10:49:31 65° W 10:50:59 29° S
Cosmos 2219 Rocket 2.8 10:45:24 16° S 10:49:41 50° ESE 10:55:04 10° NE
Molniya-1 4.5 10:49:43 21° WSW 10:51:55 53° NW 10:59:55 10° NE
ATLAS 5 CENTAUR R/B 1.9 10:48:28 10° NW 10:53:03 60° SW 10:58:44 10° SSE
Cosmos 2154 Rocket 4.0 10:50:20 15° S 10:55:35 88° E 11:01:57 10° N
ADEOS II 2.2 10:50:26 10° NNE 10:55:42 75° ESE 11:00:02 15° S
Cosmos 2322 Rocket 2.2 10:53:49 21° SW 10:57:36 72° WNW 11:03:15 10° NNE
Cosmos 2251 Rocket 4.0 10:56:46 10° NNW 11:02:03 64° ENE 11:07:15 10° SSE
KORONAS-FOTON 4.3 10:59:49 10° NNW 11:03:04 35° W 11:04:30 24° SW
Cosmos 1420 Rocket 4.4 11:00:10 14° S 11:04:39 60° ESE 11:09:49 10° NNE
Envisat 3.1 11:00:57 10° NNE 11:06:02 78° ESE 11:10:37 13° S
DMSP B5D2-2 4.3 11:00:54 10° SSE 11:06:06 76° ENE 11:11:21 10° N
Cosmos 1842 Rocket 4.2 11:02:22 10° NNW 11:06:24 36° W 11:08:55 19° SSW
Cosmos 2074 Rocket 4.1 11:03:03 17° SSW 11:07:56 64° W 11:14:09 10° N
Cosmos 1842 3.5 11:08:04 10° NNW 11:11:15 37° W 11:13:03 21° SSW
Meteor 1-18 Rocket 4.1 11:06:34 10° NNW 11:12:09 83° W 11:17:42 10° S
Cosmos 1190 Rocket 4.4 11:09:28 10° NNW 11:14:38 64° ENE 11:19:46 10° SSE
Meteor 2-13 Rocket 4.4 11:10:01 10° N 11:16:10 85° W 11:22:19 10° S
Cosmos 2056 Rocket 4.2 11:12:35 10° S 11:17:35 50° ESE 11:22:32 10° NNE
Cosmos 44 Rocket 4.4 11:16:40 12° WSW 11:20:24 32° NW 11:24:41 10° NNE
NOAA 11 4.3 11:18:47 10° N 11:24:10 64° WNW 11:29:07 12° SSW
CENTAUR R/B 3.1 11:20:04 13° WSW 11:25:02 50° NW 11:31:58 10° NNE
Meteor 2-10 4.0 11:21:25 10° S 11:26:38 86° W 11:31:45 10° N
ATLAS CENTAUR R/B 1.9 11:23:42 12° S 11:26:50 44° ESE 11:30:27 10° NE
SL-16 R/B 3.5 11:24:40 11° WSW 11:29:20 28° NW 11:34:12 10° N
NOSS 3-2 (C) 4.0 11:25:16 10° S 11:29:59 43° ESE 11:35:28 10° NE
Cosmos 1536 2.9 11:27:48 10° S 11:31:29 69° E 11:35:12 10° NNE
Cosmos 2333 Rocket 3.0 11:27:39 13° WSW 11:32:23 39° NW 11:37:44 10° NNE
SJ 16-02 2.9 11:30:47 10° N 11:34:47 38° ENE 11:38:46 10° SE
CZ-2C R/B 3.8 11:33:30 10° NNE 11:38:14 39° E 11:43:01 10° SSE
AQUA 3.8 11:34:12 10° N 11:38:54 74° WNW 11:43:34 10° SSW
NOSS 3-2 (A) 3.3 11:34:22 13° SW 11:38:57 70° NW 11:44:59 10° NE
SL-16 R/B 2.6 11:33:38 10° SSE 11:39:53 78° WSW 11:46:12 10° NNW
Cosmos 1151 Rocket 3.2 11:36:15 10° NNW 11:40:26 50° W 11:44:33 10° S
H-2A R/B 3.8 11:38:15 10° NNW 11:41:12 19° WNW 11:44:10 10° WSW
Cosmos 405 Rocket 2.3 11:44:06 10° SSW 11:47:18 64° WNW 11:50:32 10° N
NOSS 2-2 (E) 4.2 11:44:36 10° S 11:47:47 32° ESE 11:50:35 10° ENE
Resurs 1-4 Rocket 3.4 11:45:24 10° N 11:49:48 27° WNW 11:54:12 10° WSW
ARIANE 6 FM1 Upper Stage 2.9 11:47:20 10° SW 11:51:11 58° NW 11:55:08 10° NE
SL-8 Rocket 4.1 11:45:28 10° S 11:51:39 85° E 11:57:55 10° N
USA 276 3.4 11:50:59 10° WNW 11:53:21 28° N 11:55:32 10° NE
Meteor 1-28 Rocket 2.9 11:52:55 10° S 11:56:13 58° WSW 11:59:33 10° NNW
